Time,TemperatureF,DewpointF,PressureIn,WindDirection,WindDirectionDegrees,WindSpeedMPH,WindSpeedGustMPH,Humidity,HourlyPrecipIn,Conditions,Clouds,dailyrainin,SoftwareType,DateUTC
2013-09-09 00:03:00,72.3,66.2,30.01,South,180,0.0,0.0,81,0.00,,,0.00,WUHU21523XXSP,2013-09-09 04:03:00,
2013-09-09 00:08:00,72.3,66.2,30.01,South,180,0.0,0.0,81,0.00,,,0.00,WUHU21523XXSP,2013-09-09 04:08:00,
2013-09-09 00:13:00,72.3,66.2,30.01,South,180,0.0,0.0,81,0.00,,,0.00,WUHU21523XXSP,2013-09-09 04:13:00,
2013-09-09 00:18:00,72.3,66.2,30.01,South,180,0.0,0.0,81,0.00,,,0.00,WUHU21523XXSP,2013-09-09 04:18:00,
2013-09-09 00:23:00,72.3,66.2,30.02,South,180,0.0,0.0,81,0.00,,,0.00,WUHU21523XXSP,2013-09-09 04:23:00,
2013-09-09 00:28:00,72.1,66.0,30.01,South,180,0.0,0.0,81,0.00,,,0.00,WUHU21523XXSP,2013-09-09 04:28:00,
2013-09-09 00:33:00,72.1,66.0,30.02,South,180,0.0,0.0,81,0.00,,,0.00,WUHU21523XXSP,2013-09-09 04:33:00,
2013-09-09 00:38:00,72.0,65.8,30.02,South,180,0.0,0.0,81,0.00,,,0.00,WUHU21523XXSP,2013-09-09 04:38:00,
2013-09-09 00:43:00,71.8,65.6,30.02,South,180,0.0,0.0,81,0.00,,,0.00,WUHU21523XXSP,2013-09-09 04:43:00,
2013-09-09 00:48:00,71.8,65.6,30.02,South,180,0.0,0.0,81,0.00,,,0.00,WUHU21523XXSP,2013-09-09 04:48:00,
2013-09-09 00:53:00,71.8,66.0,30.02,South,180,0.0,0.0,82,0.00,,,0.00,WUHU21523XXSP,2013-09-09 04:53:00,
2013-09-09 00:58:00,71.8,66.0,30.02,South,180,0.0,0.0,82,0.00,,,0.00,WUHU21523XXSP,2013-09-09 04:58:00,
2013-09-09 01:03:00,71.8,66.0,30.02,South,180,0.0,0.0,82,0.00,,,0.00,WUHU21523XXSP,2013-09-09 05:03:00,
2013-09-09 01:08:00,71.4,65.6,30.02,South,180,0.0,0.0,82,0.00,,,0.00,WUHU21523XXSP,2013-09-09 05:08:00,
2013-09-09 01:13:00,71.4,65.6,30.02,South,180,0.0,0.0,82,0.00,,,0.00,WUHU21523XXSP,2013-09-09 05:13:00,
2013-09-09 01:18:00,71.4,65.6,30.02,South,180,0.0,0.0,82,0.00,,,0.00,WUHU21523XXSP,2013-09-09 05:18:00,
2013-09-09 01:23:00,71.4,65.6,30.03,South,180,0.0,0.0,82,0.00,,,0.00,WUHU21523XXSP,2013-09-09 05:23:00,
2013-09-09 01:28:00,71.2,65.4,30.03,South,180,0.0,0.0,82,0.00,,,0.00,WUHU21523XXSP,2013-09-09 05:28:00,
2013-09-09 01:33:00,71.2,65.4,30.03,South,180,0.0,0.0,82,0.00,,,0.00,WUHU21523XXSP,2013-09-09 05:33:00,
2013-09-09 01:38:00,71.2,65.8,30.03,South,180,0.0,0.0,83,0.00,,,0.00,WUHU21523XXSP,2013-09-09 05:38:00,
2013-09-09 01:43:00,71.2,65.8,30.03,South,180,0.0,0.0,83,0.00,,,0.00,WUHU21523XXSP,2013-09-09 05:43:00,
2013-09-09 01:48:00,70.9,65.4,30.03,South,180,0.0,0.0,83,0.00,,,0.00,WUHU21523XXSP,2013-09-09 05:48:00,
2013-09-09 01:53:00,70.9,65.4,30.03,South,180,0.0,0.0,83,0.00,,,0.00,WUHU21523XXSP,2013-09-09 05:53:00,
2013-09-09 01:58:00,70.9,65.4,30.04,South,180,0.0,0.0,83,0.00,,,0.00,WUHU21523XXSP,2013-09-09 05:58:00,
2013-09-09 02:03:00,70.9,65.4,30.04,South,180,0.0,0.0,83,0.00,,,0.00,WUHU21523XXSP,2013-09-09 06:03:00,
2013-09-09 02:08:00,70.7,65.2,30.04,South,180,0.0,0.0,83,0.00,,,0.00,WUHU21523XXSP,2013-09-09 06:08:00,
2013-09-09 02:13:00,70.7,65.2,30.04,South,180,0.0,0.0,83,0.00,,,0.00,WUHU21523XXSP,2013-09-09 06:13:00,
2013-09-09 02:18:00,70.5,65.1,30.04,South,180,0.0,0.0,83,0.00,,,0.00,WUHU21523XXSP,2013-09-09 06:18:00,
2013-09-09 02:23:00,70.5,65.1,30.04,SSW,202,0.0,0.0,83,0.00,,,0.00,WUHU21523XXSP,2013-09-09 06:23:00,
2013-09-09 02:28:00,70.5,65.1,30.04,SSW,202,0.0,0.0,83,0.00,,,0.00,WUHU21523XXSP,2013-09-09 06:28:00,
2013-09-09 02:33:00,70.5,65.1,30.04,SSW,202,0.0,0.0,83,0.00,,,0.00,WUHU21523XXSP,2013-09-09 06:33:00,
2013-09-09 02:38:00,70.3,64.9,30.04,SSW,202,0.0,0.0,83,0.00,,,0.00,WUHU21523XXSP,2013-09-09 06:38:00,
2013-09-09 02:43:00,70.3,64.9,30.04,SSW,202,0.0,0.0,83,0.00,,,0.00,WUHU21523XXSP,2013-09-09 06:43:00,
2013-09-09 02:48:00,70.3,64.9,30.04,SSW,202,0.0,0.0,83,0.00,,,0.00,WUHU21523XXSP,2013-09-09 06:48:00,
2013-09-09 02:53:00,70.2,64.9,30.04,SSW,202,0.0,0.0,84,0.00,,,0.00,WUHU21523XXSP,2013-09-09 06:53:00,
2013-09-09 02:58:00,70.2,65.0,30.04,SSW,202,0.0,0.0,84,0.00,,,0.00,WUHU21523XXSP,2013-09-09 06:58:00,
2013-09-09 03:03:00,70.2,65.0,30.04,SSW,202,0.0,0.0,84,0.00,,,0.00,WUHU21523XXSP,2013-09-09 07:03:00,
2013-09-09 03:08:00,69.8,64.7,30.04,SSW,202,0.0,0.0,84,0.00,,,0.00,WUHU21523XXSP,2013-09-09 07:08:00,
2013-09-09 03:13:00,70.0,64.9,30.04,SSW,202,0.0,0.0,84,0.00,,,0.00,WUHU21523XXSP,2013-09-09 07:13:00,
2013-09-09 03:18:00,70.0,64.9,30.04,SSW,202,0.0,0.0,84,0.00,,,0.00,WUHU21523XXSP,2013-09-09 07:18:00,
2013-09-09 03:23:00,69.8,64.7,30.04,SSW,202,0.0,0.0,84,0.00,,,0.00,WUHU21523XXSP,2013-09-09 07:23:00,
2013-09-09 03:28:00,69.8,64.7,30.04,SSW,202,0.0,0.0,84,0.00,,,0.00,WUHU21523XXSP,2013-09-09 07:28:00,
2013-09-09 03:34:00,69.8,64.7,30.04,SSW,202,0.0,0.0,84,0.00,,,0.00,WUHU21523XXSP,2013-09-09 07:34:00,
2013-09-09 03:39:00,69.6,64.5,30.04,SSW,202,0.0,0.0,84,0.00,,,0.00,WUHU21523XXSP,2013-09-09 07:39:00,
2013-09-09 03:44:00,69.6,64.5,30.04,SSW,202,0.0,0.0,84,0.00,,,0.00,WUHU21523XXSP,2013-09-09 07:44:00,
2013-09-09 03:49:00,69.6,64.5,30.04,SSW,202,0.0,0.0,84,0.00,,,0.00,WUHU21523XXSP,2013-09-09 07:49:00,
2013-09-09 03:54:00,69.6,64.5,30.04,SSW,202,0.0,0.0,84,0.00,,,0.00,WUHU21523XXSP,2013-09-09 07:54:00,
2013-09-09 03:59:00,69.4,64.3,30.04,SSW,202,0.0,0.0,84,0.00,,,0.00,WUHU21523XXSP,2013-09-09 07:59:00,
2013-09-09 04:04:00,69.4,64.3,30.04,SSW,202,0.0,0.0,84,0.00,,,0.00,WUHU21523XXSP,2013-09-09 08:04:00,
2013-09-09 04:09:00,69.1,64.3,30.04,SSW,202,0.0,0.0,85,0.00,,,0.00,WUHU21523XXSP,2013-09-09 08:09:00,
2013-09-09 04:14:00,68.9,64.2,30.05,SSW,202,0.0,0.0,85,0.00,,,0.00,WUHU21523XXSP,2013-09-09 08:14:00,
2013-09-09 04:19:00,68.7,64.0,30.05,SSW,202,0.0,0.0,85,0.00,,,0.00,WUHU21523XXSP,2013-09-09 08:19:00,
2013-09-09 04:24:00,68.7,64.0,30.05,SSW,202,0.0,0.0,85,0.00,,,0.00,WUHU21523XXSP,2013-09-09 08:24:00,
2013-09-09 04:29:00,68.7,64.0,30.05,SSW,202,0.0,0.0,85,0.00,,,0.00,WUHU21523XXSP,2013-09-09 08:29:00,
2013-09-09 04:34:00,68.7,64.0,30.05,SSW,202,0.0,0.0,85,0.00,,,0.00,WUHU21523XXSP,2013-09-09 08:34:00,
2013-09-09 04:39:00,68.7,64.0,30.06,SSW,202,0.0,0.0,85,0.00,,,0.00,WUHU21523XXSP,2013-09-09 08:39:00,
2013-09-09 04:44:00,68.7,64.0,30.06,SSW,202,0.0,0.0,85,0.00,,,0.00,WUHU21523XXSP,2013-09-09 08:44:00,
2013-09-09 04:49:00,68.7,64.0,30.06,SSW,202,0.0,0.0,85,0.00,,,0.00,WUHU21523XXSP,2013-09-09 08:49:00,
2013-09-09 04:54:00,68.7,64.0,30.07,SSW,202,0.0,0.0,85,0.00,,,0.00,WUHU21523XXSP,2013-09-09 08:54:00,
2013-09-09 04:59:00,68.7,64.0,30.07,SSW,202,0.0,0.0,85,0.00,,,0.00,WUHU21523XXSP,2013-09-09 08:59:00,
2013-09-09 05:04:00,68.5,63.8,30.07,SSW,202,0.0,0.0,85,0.00,,,0.00,WUHU21523XXSP,2013-09-09 09:04:00,
2013-09-09 05:09:00,68.5,63.8,30.07,SSW,202,0.0,0.0,85,0.00,,,0.00,WUHU21523XXSP,2013-09-09 09:09:00,
2013-09-09 05:14:00,68.5,63.8,30.07,SSW,202,0.0,0.0,85,0.00,,,0.00,WUHU21523XXSP,2013-09-09 09:14:00,
2013-09-09 05:19:00,68.5,63.8,30.07,SSW,202,0.0,0.0,85,0.00,,,0.00,WUHU21523XXSP,2013-09-09 09:19:00,
2013-09-09 05:24:00,68.5,63.8,30.07,SSW,202,0.0,0.0,85,0.00,,,0.00,WUHU21523XXSP,2013-09-09 09:24:00,
2013-09-09 05:29:00,68.5,63.8,30.07,SSW,202,0.0,0.0,85,0.00,,,0.00,WUHU21523XXSP,2013-09-09 09:29:00,
2013-09-09 05:34:00,68.4,63.7,30.08,SSW,202,0.0,0.0,85,0.00,,,0.00,WUHU21523XXSP,2013-09-09 09:34:00,
2013-09-09 05:39:00,68.4,63.7,30.08,SSW,202,0.0,0.0,85,0.00,,,0.00,WUHU21523XXSP,2013-09-09 09:39:00,
2013-09-09 05:44:00,68.4,63.7,30.08,SSW,202,0.0,0.0,85,0.00,,,0.00,WUHU21523XXSP,2013-09-09 09:44:00,
2013-09-09 05:49:00,68.2,63.5,30.08,SSW,202,0.0,0.0,85,0.00,,,0.00,WUHU21523XXSP,2013-09-09 09:49:00,
2013-09-09 05:54:00,68.2,63.5,30.08,SSW,202,0.0,0.0,85,0.00,,,0.00,WUHU21523XXSP,2013-09-09 09:54:00,
2013-09-09 05:59:00,68.2,63.5,30.08,SSW,202,0.0,0.0,85,0.00,,,0.00,WUHU21523XXSP,2013-09-09 09:59:00,
2013-09-09 06:04:00,68.0,63.3,30.08,SSW,202,0.0,0.0,85,0.00,,,0.00,WUHU21523XXSP,2013-09-09 10:04:00,
2013-09-09 06:09:00,67.8,63.5,30.08,SSW,202,0.0,0.0,86,0.00,,,0.00,WUHU21523XXSP,2013-09-09 10:09:00,
2013-09-09 06:14:00,67.8,63.5,30.09,SSW,202,0.0,0.0,86,0.00,,,0.00,WUHU21523XXSP,2013-09-09 10:14:00,
2013-09-09 06:19:00,67.6,63.3,30.09,SSW,202,0.0,0.0,86,0.00,,,0.00,WUHU21523XXSP,2013-09-09 10:19:00,
2013-09-09 06:24:00,67.6,63.3,30.09,SSW,202,0.0,0.0,86,0.00,,,0.00,WUHU21523XXSP,2013-09-09 10:24:00,
2013-09-09 06:29:00,67.6,63.3,30.09,SSW,202,0.0,0.0,86,0.00,,,0.00,WUHU21523XXSP,2013-09-09 10:29:00,
2013-09-09 06:34:00,67.6,63.3,30.09,SSW,202,0.0,0.0,86,0.00,,,0.00,WUHU21523XXSP,2013-09-09 10:34:00,
2013-09-09 06:39:00,67.6,63.3,30.09,SSW,202,0.0,0.0,86,0.00,,,0.00,WUHU21523XXSP,2013-09-09 10:39:00,
2013-09-09 06:44:00,67.6,63.3,30.10,SSW,202,0.0,0.0,86,0.00,,,0.00,WUHU21523XXSP,2013-09-09 10:44:00,
2013-09-09 06:49:00,67.6,63.3,30.10,SSW,202,0.0,0.0,86,0.00,,,0.00,WUHU21523XXSP,2013-09-09 10:49:00,
2013-09-09 06:54:00,67.6,63.3,30.10,SSW,202,0.0,0.0,86,0.00,,,0.00,WUHU21523XXSP,2013-09-09 10:54:00,
2013-09-09 06:59:00,67.6,63.3,30.10,SSW,202,0.0,0.0,86,0.00,,,0.00,WUHU21523XXSP,2013-09-09 10:59:00,
2013-09-09 07:04:00,67.6,63.3,30.10,SSW,202,0.0,0.0,86,0.00,,,0.00,WUHU21523XXSP,2013-09-09 11:04:00,
2013-09-09 07:09:00,67.6,63.3,30.11,SSW,202,0.0,0.0,86,0.00,,,0.00,WUHU21523XXSP,2013-09-09 11:09:00,
2013-09-09 07:14:00,67.6,63.3,30.11,SSW,202,0.0,0.0,86,0.00,,,0.00,WUHU21523XXSP,2013-09-09 11:14:00,
2013-09-09 07:19:00,67.8,63.5,30.12,SSW,202,0.0,0.0,86,0.00,,,0.00,WUHU21523XXSP,2013-09-09 11:19:00,
2013-09-09 07:24:00,67.8,63.8,30.12,SSW,202,0.0,0.0,87,0.00,,,0.00,WUHU21523XXSP,2013-09-09 11:24:00,
2013-09-09 07:29:00,67.8,63.5,30.12,SSW,202,0.0,0.0,86,0.00,,,0.00,WUHU21523XXSP,2013-09-09 11:29:00,
2013-09-09 07:34:00,67.8,63.8,30.12,SSW,202,0.0,0.0,87,0.00,,,0.00,WUHU21523XXSP,2013-09-09 11:34:00,
2013-09-09 07:39:00,67.8,63.8,30.12,SSW,202,0.0,0.0,87,0.00,,,0.00,WUHU21523XXSP,2013-09-09 11:39:00,
2013-09-09 07:44:00,67.8,63.8,30.12,SSW,202,0.0,0.0,87,0.00,,,0.00,WUHU21523XXSP,2013-09-09 11:44:00,
2013-09-09 07:49:00,68.0,64.0,30.12,SSW,202,0.0,0.0,87,0.00,,,0.00,WUHU21523XXSP,2013-09-09 11:49:00,
2013-09-09 07:54:00,68.2,64.1,30.13,SSW,202,0.0,0.0,87,0.00,,,0.00,WUHU21523XXSP,2013-09-09 11:54:00,
2013-09-09 07:59:00,68.2,64.1,30.13,SSW,202,0.0,0.0,87,0.00,,,0.00,WUHU21523XXSP,2013-09-09 11:59:00,
2013-09-09 08:04:00,68.2,64.1,30.13,SSW,202,0.0,0.0,87,0.00,,,0.00,WUHU21523XXSP,2013-09-09 12:04:00,
2013-09-09 08:09:00,68.2,64.1,30.13,SSW,202,0.0,0.0,87,0.00,,,0.00,WUHU21523XXSP,2013-09-09 12:09:00,
2013-09-09 08:14:00,68.2,64.1,30.13,South,180,0.0,0.0,87,0.00,,,0.00,WUHU21523XXSP,2013-09-09 12:14:00,
2013-09-09 08:19:00,68.4,64.3,30.13,South,180,0.0,0.0,87,0.00,,,0.00,WUHU21523XXSP,2013-09-09 12:19:00,
2013-09-09 08:24:00,68.4,64.3,30.13,South,180,0.0,0.0,87,0.00,,,0.00,WUHU21523XXSP,2013-09-09 12:24:00,
2013-09-09 08:29:00,68.4,64.3,30.13,South,180,0.0,0.0,87,0.00,,,0.00,WUHU21523XXSP,2013-09-09 12:29:00,
2013-09-09 08:34:00,68.4,64.3,30.14,South,180,0.0,0.0,87,0.00,,,0.00,WUHU21523XXSP,2013-09-09 12:34:00,
2013-09-09 08:39:00,68.4,64.3,30.14,South,180,0.0,0.0,87,0.00,,,0.00,WUHU21523XXSP,2013-09-09 12:39:00,
2013-09-09 08:44:00,68.5,64.5,30.14,South,180,0.0,0.0,87,0.00,,,0.00,WUHU21523XXSP,2013-09-09 12:44:00,
2013-09-09 08:49:00,68.5,64.5,30.14,South,180,0.0,0.0,87,0.00,,,0.00,WUHU21523XXSP,2013-09-09 12:49:00,
2013-09-09 08:54:00,68.7,64.7,30.14,South,180,0.0,0.0,87,0.00,,,0.00,WUHU21523XXSP,2013-09-09 12:54:00,
2013-09-09 08:59:00,68.7,64.7,30.14,South,180,0.0,0.0,87,0.00,,,0.00,WUHU21523XXSP,2013-09-09 12:59:00,
2013-09-09 09:04:00,68.9,64.8,30.15,South,180,0.0,0.0,87,0.00,,,0.00,WUHU21523XXSP,2013-09-09 13:04:00,
2013-09-09 09:09:00,69.1,65.0,30.15,South,180,0.0,0.0,87,0.00,,,0.00,WUHU21523XXSP,2013-09-09 13:09:00,
2013-09-09 09:15:00,69.1,65.0,30.15,South,180,0.0,0.0,87,0.00,,,0.00,WUHU21523XXSP,2013-09-09 13:15:00,
2013-09-09 09:20:00,69.3,65.2,30.15,South,180,0.0,0.0,87,0.00,,,0.00,WUHU21523XXSP,2013-09-09 13:20:00,
2013-09-09 09:25:00,69.4,65.4,30.15,SSW,202,0.0,0.0,87,0.00,,,0.00,WUHU21523XXSP,2013-09-09 13:25:00,
2013-09-09 09:30:00,69.6,65.5,30.15,SSW,202,0.0,0.0,87,0.00,,,0.00,WUHU21523XXSP,2013-09-09 13:30:00,
2013-09-09 09:35:00,69.6,65.5,30.15,South,180,0.0,0.0,87,0.00,,,0.00,WUHU21523XXSP,2013-09-09 13:35:00,
2013-09-09 09:40:00,69.6,65.5,30.16,SSW,202,0.0,0.0,87,0.00,,,0.00,WUHU21523XXSP,2013-09-09 13:40:00,
2013-09-09 09:45:00,69.8,65.7,30.16,SSE,157,0.0,0.0,87,0.00,,,0.00,WUHU21523XXSP,2013-09-09 13:45:00,
2013-09-09 09:50:00,69.8,65.7,30.16,SSW,202,0.0,0.0,87,0.00,,,0.00,WUHU21523XXSP,2013-09-09 13:50:00,
2013-09-09 09:55:00,70.0,65.6,30.16,ENE,67,0.0,0.0,86,0.00,,,0.00,WUHU21523XXSP,2013-09-09 13:55:00,
2013-09-09 10:00:00,70.0,65.6,30.16,SSE,157,0.0,0.0,86,0.00,,,0.00,WUHU21523XXSP,2013-09-09 14:00:00,
2013-09-09 10:05:00,70.0,65.6,30.16,ENE,67,0.0,0.0,86,0.00,,,0.00,WUHU21523XXSP,2013-09-09 14:05:00,
2013-09-09 10:10:00,70.0,65.6,30.16,SSE,157,0.0,0.0,86,0.00,,,0.00,WUHU21523XXSP,2013-09-09 14:10:00,
2013-09-09 10:15:00,70.0,65.6,30.16,NE,45,0.0,0.0,86,0.00,,,0.00,WUHU21523XXSP,2013-09-09 14:15:00,
2013-09-09 10:20:00,70.0,65.6,30.16,NE,45,0.0,0.0,86,0.00,,,0.00,WUHU21523XXSP,2013-09-09 14:20:00,
2013-09-09 10:25:00,70.0,65.6,30.16,South,180,0.0,0.0,86,0.00,,,0.00,WUHU21523XXSP,2013-09-09 14:25:00,
2013-09-09 10:30:00,70.0,65.6,30.16,WSW,247,0.0,0.0,86,0.00,,,0.00,WUHU21523XXSP,2013-09-09 14:30:00,
2013-09-09 10:35:00,70.2,65.4,30.17,SSW,202,0.0,0.0,85,0.00,,,0.00,WUHU21523XXSP,2013-09-09 14:35:00,
2013-09-09 10:40:00,70.2,65.0,30.17,SW,225,0.0,0.0,84,0.00,,,0.00,WUHU21523XXSP,2013-09-09 14:40:00,
2013-09-09 10:45:00,70.2,65.0,30.17,ESE,112,0.0,0.0,84,0.00,,,0.00,WUHU21523XXSP,2013-09-09 14:45:00,
2013-09-09 10:50:00,70.0,64.9,30.17,SSW,202,0.0,0.0,84,0.00,,,0.00,WUHU21523XXSP,2013-09-09 14:50:00,
2013-09-09 10:55:00,70.0,64.9,30.17,SSE,157,0.0,0.0,84,0.00,,,0.00,WUHU21523XXSP,2013-09-09 14:55:00,
2013-09-09 11:00:00,70.0,64.9,30.17,North,0,0.0,0.0,84,0.00,,,0.00,WUHU21523XXSP,2013-09-09 15:00:00,
2013-09-09 11:05:00,70.0,64.9,30.18,ENE,67,0.0,0.0,84,0.00,,,0.00,WUHU21523XXSP,2013-09-09 15:05:00,
2013-09-09 11:10:00,70.0,64.5,30.18,SE,135,0.0,0.0,83,0.00,,,0.00,WUHU21523XXSP,2013-09-09 15:10:00,
2013-09-09 11:15:00,70.2,64.7,30.18,SSW,202,0.0,0.0,83,0.00,,,0.00,WUHU21523XXSP,2013-09-09 15:15:00,
2013-09-09 11:20:00,70.3,64.9,30.17,SSW,202,0.0,0.0,83,0.00,,,0.00,WUHU21523XXSP,2013-09-09 15:20:00,
2013-09-09 11:25:00,70.3,64.9,30.18,SW,225,0.0,0.0,83,0.00,,,0.00,WUHU21523XXSP,2013-09-09 15:25:00,
2013-09-09 11:30:00,70.3,64.9,30.18,WSW,247,0.0,0.0,83,0.00,,,0.00,WUHU21523XXSP,2013-09-09 15:30:00,
2013-09-09 11:35:00,70.5,65.1,30.18,SW,225,0.0,0.0,83,0.00,,,0.00,WUHU21523XXSP,2013-09-09 15:35:00,
2013-09-09 11:40:00,70.5,65.1,30.18,South,180,0.0,0.0,83,0.00,,,0.00,WUHU21523XXSP,2013-09-09 15:40:00,
2013-09-09 11:45:00,70.7,64.9,30.18,SSW,202,0.0,0.0,82,0.00,,,0.00,WUHU21523XXSP,2013-09-09 15:45:00,
2013-09-09 11:50:00,70.9,64.9,30.18,North,0,0.0,0.0,82,0.00,,,0.00,WUHU21523XXSP,2013-09-09 15:50:00,
2013-09-09 11:55:00,70.9,65.1,30.18,SSE,157,0.0,0.0,82,0.00,,,0.00,WUHU21523XXSP,2013-09-09 15:55:00,
2013-09-09 12:00:00,70.9,65.1,30.17,ESE,112,0.0,0.0,82,0.00,,,0.00,WUHU21523XXSP,2013-09-09 16:00:00,
2013-09-09 12:05:00,71.1,65.3,30.17,South,180,0.0,0.0,82,0.00,,,0.00,WUHU21523XXSP,2013-09-09 16:05:00,
2013-09-09 12:10:00,71.2,65.4,30.17,ENE,67,0.0,0.0,82,0.00,,,0.00,WUHU21523XXSP,2013-09-09 16:10:00,
2013-09-09 12:15:00,71.2,65.1,30.17,SE,135,0.0,0.0,81,0.00,,,0.00,WUHU21523XXSP,2013-09-09 16:15:00,
2013-09-09 12:20:00,71.2,65.1,30.17,SSW,202,0.0,0.0,81,0.00,,,0.00,WUHU21523XXSP,2013-09-09 16:20:00,
2013-09-09 12:25:00,71.4,65.3,30.17,WSW,247,0.0,0.0,81,0.00,,,0.00,WUHU21523XXSP,2013-09-09 16:25:00,
2013-09-09 12:30:00,71.4,65.3,30.18,SSE,157,0.0,0.0,81,0.00,,,0.00,WUHU21523XXSP,2013-09-09 16:30:00,
2013-09-09 12:35:00,71.4,65.3,30.18,South,180,0.0,0.0,81,0.00,,,0.00,WUHU21523XXSP,2013-09-09 16:35:00,
2013-09-09 12:40:00,71.4,65.3,30.18,South,180,0.0,0.0,81,0.00,,,0.00,WUHU21523XXSP,2013-09-09 16:40:00,
2013-09-09 12:45:00,71.4,65.3,30.17,WSW,247,0.0,0.0,81,0.00,,,0.00,WUHU21523XXSP,2013-09-09 16:45:00,
2013-09-09 12:50:00,71.4,65.6,30.18,SE,135,0.0,0.0,82,0.00,,,0.00,WUHU21523XXSP,2013-09-09 16:50:00,
2013-09-09 12:55:00,71.6,65.5,30.18,SSE,157,0.0,0.0,81,0.00,,,0.00,WUHU21523XXSP,2013-09-09 16:55:00,
2013-09-09 13:00:00,71.8,65.6,30.17,SSE,157,0.0,0.0,81,0.00,,,0.00,WUHU21523XXSP,2013-09-09 17:00:00,
2013-09-09 13:05:00,71.8,66.0,30.17,ENE,67,0.0,0.0,82,0.00,,,0.00,WUHU21523XXSP,2013-09-09 17:05:00,
2013-09-09 13:10:00,71.8,65.6,30.17,ENE,67,0.0,0.0,81,0.00,,,0.00,WUHU21523XXSP,2013-09-09 17:10:00,
2013-09-09 13:15:00,71.8,65.8,30.18,ENE,67,0.0,0.0,81,0.00,,,0.00,WUHU21523XXSP,2013-09-09 17:15:00,
2013-09-09 13:20:00,72.1,66.0,30.17,ENE,67,0.0,0.0,81,0.00,,,0.00,WUHU21523XXSP,2013-09-09 17:20:00,
2013-09-09 13:25:00,72.0,65.8,30.17,SW,225,0.0,0.0,81,0.00,,,0.00,WUHU21523XXSP,2013-09-09 17:25:00,
2013-09-09 13:30:00,72.1,66.0,30.18,SW,225,0.0,0.0,81,0.00,,,0.00,WUHU21523XXSP,2013-09-09 17:30:00,
2013-09-09 13:35:00,72.3,66.2,30.18,South,180,0.0,0.0,81,0.00,,,0.00,WUHU21523XXSP,2013-09-09 17:35:00,
2013-09-09 13:40:00,72.3,66.2,30.17,SSW,202,0.0,0.0,81,0.00,,,0.00,WUHU21523XXSP,2013-09-09 17:40:00,
2013-09-09 13:45:00,72.3,66.2,30.17,SSE,157,0.0,0.0,81,0.00,,,0.00,WUHU21523XXSP,2013-09-09 17:45:00,
2013-09-09 13:50:00,72.3,66.2,30.17,South,180,0.0,0.0,81,0.00,,,0.00,WUHU21523XXSP,2013-09-09 17:50:00,
2013-09-09 13:55:00,72.7,66.5,30.17,SSW,202,0.0,0.0,81,0.00,,,0.00,WUHU21523XXSP,2013-09-09 17:55:00,
2013-09-09 14:00:00,72.9,66.7,30.17,NE,45,0.0,0.0,81,0.00,,,0.00,WUHU21523XXSP,2013-09-09 18:00:00,
2013-09-09 14:05:00,73.0,66.9,30.17,NE,45,0.0,0.0,81,0.00,,,0.00,WUHU21523XXSP,2013-09-09 18:05:00,
2013-09-09 14:10:00,73.0,66.6,30.17,SSW,202,0.0,0.0,80,0.00,,,0.00,WUHU21523XXSP,2013-09-09 18:10:00,
2013-09-09 14:15:00,73.2,66.7,30.17,South,180,0.0,0.0,80,0.00,,,0.00,WUHU21523XXSP,2013-09-09 18:15:00,
2013-09-09 14:20:00,73.6,67.1,30.16,NE,45,0.0,0.0,80,0.00,,,0.00,WUHU21523XXSP,2013-09-09 18:20:00,
2013-09-09 14:25:00,73.9,67.5,30.17,SSW,202,0.0,0.0,80,0.00,,,0.00,WUHU21523XXSP,2013-09-09 18:25:00,
2013-09-09 14:30:00,74.1,67.6,30.17,ENE,67,0.0,0.0,80,0.00,,,0.00,WUHU21523XXSP,2013-09-09 18:30:00,
2013-09-09 14:40:00,74.1,67.2,30.16,ESE,112,0.0,0.0,79,0.00,,,0.00,WUHU21523XXSP,2013-09-09 18:40:00,
2013-09-09 14:45:00,74.5,67.6,30.15,East,90,0.0,0.0,79,0.00,,,0.00,WUHU21523XXSP,2013-09-09 18:45:00,
2013-09-09 14:50:00,74.8,68.0,30.15,North,0,0.0,0.0,79,0.00,,,0.00,WUHU21523XXSP,2013-09-09 18:50:00,
2013-09-09 14:55:00,75.0,68.1,30.16,SSE,157,0.0,0.0,79,0.00,,,0.00,WUHU21523XXSP,2013-09-09 18:55:00,
2013-09-09 15:00:00,75.0,68.1,30.15,East,90,0.0,0.0,79,0.00,,,0.00,WUHU21523XXSP,2013-09-09 19:00:00,
2013-09-09 15:05:00,75.2,67.9,30.15,West,270,0.0,0.0,78,0.00,,,0.00,WUHU21523XXSP,2013-09-09 19:05:00,
2013-09-09 15:10:00,75.4,68.1,30.15,ENE,67,0.0,0.0,78,0.00,,,0.00,WUHU21523XXSP,2013-09-09 19:10:00,
2013-09-09 15:15:00,75.6,68.3,30.15,South,180,0.0,0.0,78,0.00,,,0.00,WUHU21523XXSP,2013-09-09 19:15:00,
2013-09-09 15:20:00,75.7,68.4,30.15,South,180,0.0,0.0,78,0.00,,,0.00,WUHU21523XXSP,2013-09-09 19:20:00,
2013-09-09 15:25:00,75.9,68.6,30.15,SSE,157,0.0,0.0,78,0.00,,,0.00,WUHU21523XXSP,2013-09-09 19:25:00,
2013-09-09 15:30:00,76.3,68.5,30.14,West,270,0.0,0.0,77,0.00,,,0.00,WUHU21523XXSP,2013-09-09 19:30:00,
2013-09-09 15:35:00,76.6,68.9,30.14,SW,225,0.0,0.0,77,0.00,,,0.00,WUHU21523XXSP,2013-09-09 19:35:00,
2013-09-09 15:40:00,76.6,68.5,30.13,WSW,247,0.0,0.0,76,0.00,,,0.00,WUHU21523XXSP,2013-09-09 19:40:00,
2013-09-09 15:45:00,76.8,69.0,30.13,South,180,0.0,0.0,77,0.00,,,0.00,WUHU21523XXSP,2013-09-09 19:45:00,
2013-09-09 15:50:00,76.8,68.6,30.13,NNE,22,0.0,0.0,76,0.00,,,0.00,WUHU21523XXSP,2013-09-09 19:50:00,
2013-09-09 15:55:00,77.0,68.8,30.13,NE,45,0.0,0.0,76,0.00,,,0.00,WUHU21523XXSP,2013-09-09 19:55:00,
2013-09-09 16:00:00,77.2,69.0,30.13,NE,45,0.0,0.0,76,0.00,,,0.00,WUHU21523XXSP,2013-09-09 20:00:00,
2013-09-09 16:05:00,77.4,69.2,30.13,SSE,157,0.0,0.0,76,0.00,,,0.00,WUHU21523XXSP,2013-09-09 20:05:00,
2013-09-09 16:10:00,77.4,68.8,30.12,ENE,67,0.0,0.0,75,0.00,,,0.00,WUHU21523XXSP,2013-09-09 20:10:00,
2013-09-09 16:15:00,77.5,69.3,30.13,ENE,67,0.0,0.0,76,0.00,,,0.00,WUHU21523XXSP,2013-09-09 20:15:00,
2013-09-09 16:20:00,77.5,69.3,30.12,South,180,0.0,0.0,76,0.00,,,0.00,WUHU21523XXSP,2013-09-09 20:20:00,
2013-09-09 16:25:00,77.5,69.0,30.12,SSW,202,0.0,0.0,75,0.00,,,0.00,WUHU21523XXSP,2013-09-09 20:25:00,
2013-09-09 16:30:00,77.5,69.0,30.13,WSW,247,0.0,0.0,75,0.00,,,0.00,WUHU21523XXSP,2013-09-09 20:30:00,
2013-09-09 16:35:00,77.5,69.0,30.12,SSW,202,0.0,0.0,75,0.00,,,0.00,WUHU21523XXSP,2013-09-09 20:35:00,
2013-09-09 16:40:00,77.5,69.0,30.12,South,180,0.0,0.0,75,0.00,,,0.00,WUHU21523XXSP,2013-09-09 20:40:00,
2013-09-09 16:45:00,77.5,69.0,30.12,East,90,0.0,0.0,75,0.00,,,0.00,WUHU21523XXSP,2013-09-09 20:45:00,
2013-09-09 16:50:00,77.7,69.1,30.11,WSW,247,0.0,0.0,75,0.00,,,0.00,WUHU21523XXSP,2013-09-09 20:50:00,
2013-09-09 16:55:00,77.7,69.1,30.11,WNW,292,0.0,0.0,75,0.00,,,0.00,WUHU21523XXSP,2013-09-09 20:55:00,
2013-09-09 17:00:00,77.7,69.1,30.12,SSW,202,0.0,0.0,75,0.00,,,0.00,WUHU21523XXSP,2013-09-09 21:00:00,
2013-09-09 17:05:00,77.7,68.7,30.12,SSW,202,0.0,0.0,74,0.00,,,0.00,WUHU21523XXSP,2013-09-09 21:05:00,
2013-09-09 17:10:00,77.9,68.9,30.12,ENE,67,0.0,0.0,74,0.00,,,0.00,WUHU21523XXSP,2013-09-09 21:10:00,
2013-09-09 17:15:00,77.9,69.3,30.12,South,180,0.0,0.0,75,0.00,,,0.00,WUHU21523XXSP,2013-09-09 21:15:00,
2013-09-09 17:20:00,77.9,68.9,30.11,SSW,202,0.0,0.0,74,0.00,,,0.00,WUHU21523XXSP,2013-09-09 21:20:00,
2013-09-09 17:25:00,77.9,68.9,30.12,NE,45,0.0,0.0,74,0.00,,,0.00,WUHU21523XXSP,2013-09-09 21:25:00,
2013-09-09 17:30:00,77.9,68.9,30.12,NNE,22,0.0,0.0,74,0.00,,,0.00,WUHU21523XXSP,2013-09-09 21:30:00,
2013-09-09 17:35:00,77.9,68.9,30.12,ENE,67,0.0,0.0,74,0.00,,,0.00,WUHU21523XXSP,2013-09-09 21:35:00,
2013-09-09 17:40:00,77.7,68.7,30.12,SSE,157,0.0,0.0,74,0.00,,,0.00,WUHU21523XXSP,2013-09-09 21:40:00,
2013-09-09 17:45:00,77.7,68.7,30.12,SSW,202,0.0,0.0,74,0.00,,,0.00,WUHU21523XXSP,2013-09-09 21:45:00,
2013-09-09 17:50:00,77.5,69.1,30.12,SSW,202,0.0,0.0,75,0.00,,,0.00,WUHU21523XXSP,2013-09-09 21:50:00,
2013-09-09 17:55:00,77.5,69.0,30.12,South,180,0.0,0.0,75,0.00,,,0.00,WUHU21523XXSP,2013-09-09 21:55:00,
2013-09-09 18:00:00,77.5,69.0,30.12,ESE,112,0.0,0.0,75,0.00,,,0.00,WUHU21523XXSP,2013-09-09 22:00:00,
2013-09-09 18:05:00,77.5,69.0,30.12,West,270,0.0,0.0,75,0.00,,,0.00,WUHU21523XXSP,2013-09-09 22:05:00,
2013-09-09 18:10:00,77.4,68.8,30.12,SE,135,0.0,0.0,75,0.00,,,0.00,WUHU21523XXSP,2013-09-09 22:10:00,
2013-09-09 18:15:00,77.4,68.8,30.12,SSW,202,0.0,0.0,75,0.00,,,0.00,WUHU21523XXSP,2013-09-09 22:15:00,
2013-09-09 18:20:00,77.2,68.6,30.12,ENE,67,0.0,0.0,75,0.00,,,0.00,WUHU21523XXSP,2013-09-09 22:20:00,
2013-09-09 18:25:00,77.2,68.6,30.11,South,180,0.0,0.0,75,0.00,,,0.00,WUHU21523XXSP,2013-09-09 22:25:00,
2013-09-09 18:30:00,77.0,68.5,30.12,NE,45,0.0,0.0,75,0.00,,,0.00,WUHU21523XXSP,2013-09-09 22:30:00,
2013-09-09 18:35:00,76.8,68.6,30.12,NE,45,0.0,0.0,76,0.00,,,0.00,WUHU21523XXSP,2013-09-09 22:35:00,
2013-09-09 18:40:00,76.8,68.6,30.12,NE,45,0.0,0.0,76,0.00,,,0.00,WUHU21523XXSP,2013-09-09 22:40:00,
2013-09-09 18:45:00,76.8,68.6,30.12,ENE,67,0.0,0.0,76,0.00,,,0.00,WUHU21523XXSP,2013-09-09 22:45:00,
2013-09-09 18:50:00,76.8,68.6,30.12,SSE,157,0.0,0.0,76,0.00,,,0.00,WUHU21523XXSP,2013-09-09 22:50:00,
2013-09-09 18:55:00,76.6,68.9,30.12,SSE,157,0.0,0.0,77,0.00,,,0.00,WUHU21523XXSP,2013-09-09 22:55:00,
2013-09-09 19:00:00,76.5,68.7,30.12,ENE,67,0.0,0.0,77,0.00,,,0.00,WUHU21523XXSP,2013-09-09 23:00:00,
2013-09-09 19:05:00,76.3,68.5,30.12,ENE,67,0.0,0.0,77,0.00,,,0.00,WUHU21523XXSP,2013-09-09 23:05:00,
2013-09-09 19:10:00,76.1,68.4,30.12,ENE,67,0.0,0.0,77,0.00,,,0.00,WUHU21523XXSP,2013-09-09 23:10:00,
2013-09-09 19:15:00,75.9,68.2,30.12,ENE,67,0.0,0.0,77,0.00,,,0.00,WUHU21523XXSP,2013-09-09 23:15:00,
2013-09-09 19:20:00,75.9,68.2,30.12,ENE,67,0.0,0.0,77,0.00,,,0.00,WUHU21523XXSP,2013-09-09 23:20:00,
2013-09-09 19:25:00,75.7,68.4,30.12,ENE,67,0.0,0.0,78,0.00,,,0.00,WUHU21523XXSP,2013-09-09 23:25:00,
2013-09-09 19:30:00,75.6,68.3,30.12,ENE,67,0.0,0.0,78,0.00,,,0.00,WUHU21523XXSP,2013-09-09 23:30:00,
2013-09-09 19:35:00,75.4,68.1,30.12,ENE,67,0.0,0.0,78,0.00,,,0.00,WUHU21523XXSP,2013-09-09 23:35:00,
2013-09-09 19:40:00,75.4,68.1,30.12,SW,225,0.0,0.0,78,0.00,,,0.00,WUHU21523XXSP,2013-09-09 23:40:00,
2013-09-09 19:45:00,75.2,68.3,30.12,SSW,202,0.0,0.0,79,0.00,,,0.00,WUHU21523XXSP,2013-09-09 23:45:00,
2013-09-09 19:50:00,75.0,67.7,30.12,SSW,202,0.0,0.0,78,0.00,,,0.00,WUHU21523XXSP,2013-09-09 23:50:00,
2013-09-09 19:55:00,74.8,68.0,30.12,SW,225,0.0,0.0,79,0.00,,,0.00,WUHU21523XXSP,2013-09-09 23:55:00,
2013-09-09 20:00:00,74.8,68.0,30.13,SW,225,0.0,0.0,79,0.00,,,0.00,WUHU21523XXSP,2013-09-10 00:00:00,
2013-09-09 20:05:00,74.8,68.0,30.13,SW,225,0.0,0.0,79,0.00,,,0.00,WUHU21523XXSP,2013-09-10 00:05:00,
2013-09-09 20:10:00,74.7,67.8,30.13,SW,225,0.0,0.0,79,0.00,,,0.00,WUHU21523XXSP,2013-09-10 00:10:00,
2013-09-09 20:15:00,74.5,67.6,30.13,SW,225,0.0,0.0,79,0.00,,,0.00,WUHU21523XXSP,2013-09-10 00:15:00,
2013-09-09 20:20:00,74.3,67.4,30.13,SW,225,0.0,0.0,79,0.00,,,0.00,WUHU21523XXSP,2013-09-10 00:20:00,
2013-09-09 20:25:00,74.1,67.2,30.13,SW,225,0.0,0.0,79,0.00,,,0.00,WUHU21523XXSP,2013-09-10 00:25:00,
2013-09-09 20:30:00,74.1,67.6,30.13,SW,225,0.0,0.0,80,0.00,,,0.00,WUHU21523XXSP,2013-09-10 00:30:00,
2013-09-09 20:35:00,73.9,67.5,30.13,SW,225,0.0,0.0,80,0.00,,,0.00,WUHU21523XXSP,2013-09-10 00:35:00,
2013-09-09 20:40:00,73.9,67.5,30.13,SW,225,0.0,0.0,80,0.00,,,0.00,WUHU21523XXSP,2013-09-10 00:40:00,
2013-09-09 20:45:00,73.8,67.3,30.14,SW,225,0.0,0.0,80,0.00,,,0.00,WUHU21523XXSP,2013-09-10 00:45:00,
2013-09-09 20:50:00,73.6,67.1,30.14,SW,225,0.0,0.0,80,0.00,,,0.00,WUHU21523XXSP,2013-09-10 00:50:00,
2013-09-09 20:55:00,73.6,67.1,30.14,SW,225,0.0,0.0,80,0.00,,,0.00,WUHU21523XXSP,2013-09-10 00:55:00,
2013-09-09 21:00:00,73.4,67.3,30.14,SW,225,0.0,0.0,81,0.00,,,0.00,WUHU21523XXSP,2013-09-10 01:00:00,
2013-09-09 21:05:00,73.2,67.1,30.14,SW,225,0.0,0.0,81,0.00,,,0.00,WUHU21523XXSP,2013-09-10 01:05:00,
2013-09-09 21:10:00,73.2,67.1,30.15,SW,225,0.0,0.0,81,0.00,,,0.00,WUHU21523XXSP,2013-09-10 01:10:00,
2013-09-09 21:15:00,73.0,66.9,30.14,SW,225,0.0,0.0,81,0.00,,,0.00,WUHU21523XXSP,2013-09-10 01:15:00,
2013-09-09 21:20:00,73.0,67.2,30.14,SW,225,0.0,0.0,82,0.00,,,0.00,WUHU21523XXSP,2013-09-10 01:20:00,
2013-09-09 21:25:00,73.0,67.2,30.14,SW,225,0.0,0.0,82,0.00,,,0.00,WUHU21523XXSP,2013-09-10 01:25:00,
2013-09-09 21:30:00,73.0,67.2,30.14,SW,225,0.0,0.0,82,0.00,,,0.00,WUHU21523XXSP,2013-09-10 01:30:00,
2013-09-09 21:35:00,72.7,66.9,30.14,SW,225,0.0,0.0,82,0.00,,,0.00,WUHU21523XXSP,2013-09-10 01:35:00,
2013-09-09 21:40:00,72.7,66.9,30.14,SW,225,0.0,0.0,82,0.00,,,0.00,WUHU21523XXSP,2013-09-10 01:40:00,
2013-09-09 21:45:00,72.5,66.7,30.14,SW,225,0.0,0.0,82,0.00,,,0.00,WUHU21523XXSP,2013-09-10 01:45:00,
2013-09-09 21:50:00,72.5,66.7,30.15,SW,225,0.0,0.0,82,0.00,,,0.00,WUHU21523XXSP,2013-09-10 01:50:00,
2013-09-09 21:55:00,72.3,66.5,30.15,SW,225,0.0,0.0,82,0.00,,,0.00,WUHU21523XXSP,2013-09-10 01:55:00,
2013-09-09 22:00:00,72.3,66.9,30.15,SW,225,0.0,0.0,83,0.00,,,0.00,WUHU21523XXSP,2013-09-10 02:00:00,
2013-09-09 22:05:00,72.3,66.9,30.15,SW,225,0.0,0.0,83,0.00,,,0.00,WUHU21523XXSP,2013-09-10 02:05:00,
2013-09-09 22:10:00,72.3,66.9,30.15,SW,225,0.0,0.0,83,0.00,,,0.00,WUHU21523XXSP,2013-09-10 02:10:00,
2013-09-09 22:15:00,72.3,66.9,30.15,SW,225,0.0,0.0,83,0.00,,,0.00,WUHU21523XXSP,2013-09-10 02:15:00,
2013-09-09 22:20:00,72.1,66.7,30.15,SW,225,0.0,0.0,83,0.00,,,0.00,WUHU21523XXSP,2013-09-10 02:20:00,
2013-09-09 22:25:00,72.1,67.0,30.16,SW,225,0.0,0.0,84,0.00,,,0.00,WUHU21523XXSP,2013-09-10 02:25:00,
2013-09-09 22:30:00,72.3,67.2,30.16,SW,225,0.0,0.0,84,0.00,,,0.00,WUHU21523XXSP,2013-09-10 02:30:00,
2013-09-09 22:35:00,72.3,67.2,30.16,SW,225,0.0,0.0,84,0.00,,,0.00,WUHU21523XXSP,2013-09-10 02:35:00,
2013-09-09 22:40:00,72.1,67.0,30.16,SW,225,0.0,0.0,84,0.00,,,0.00,WUHU21523XXSP,2013-09-10 02:40:00,
2013-09-09 22:45:00,72.1,67.0,30.16,SW,225,0.0,0.0,84,0.00,,,0.00,WUHU21523XXSP,2013-09-10 02:45:00,
2013-09-09 22:50:00,72.3,67.2,30.17,SW,225,0.0,0.0,84,0.00,,,0.00,WUHU21523XXSP,2013-09-10 02:50:00,
2013-09-09 22:55:00,72.3,67.2,30.17,SW,225,0.0,0.0,84,0.00,,,0.00,WUHU21523XXSP,2013-09-10 02:55:00,
2013-09-09 23:00:00,72.3,67.2,30.16,SW,225,0.0,0.0,84,0.00,,,0.00,WUHU21523XXSP,2013-09-10 03:00:00,
2013-09-09 23:05:00,72.3,67.2,30.17,SW,225,0.0,0.0,84,0.00,,,0.00,WUHU21523XXSP,2013-09-10 03:05:00,
2013-09-09 23:10:00,72.3,67.2,30.17,SW,225,0.0,0.0,84,0.00,,,0.00,WUHU21523XXSP,2013-09-10 03:10:00,
2013-09-09 23:15:00,72.3,67.2,30.17,SW,225,0.0,0.0,84,0.00,,,0.00,WUHU21523XXSP,2013-09-10 03:15:00,
2013-09-09 23:20:00,72.3,67.2,30.17,SW,225,0.0,0.0,84,0.00,,,0.00,WUHU21523XXSP,2013-09-10 03:20:00,
2013-09-09 23:25:00,72.3,67.2,30.17,SW,225,0.0,0.0,84,0.00,,,0.00,WUHU21523XXSP,2013-09-10 03:25:00,
2013-09-09 23:30:00,72.1,67.0,30.17,SW,225,0.0,0.0,84,0.00,,,0.00,WUHU21523XXSP,2013-09-10 03:30:00,
2013-09-09 23:35:00,72.1,67.0,30.17,SW,225,0.0,0.0,84,0.00,,,0.00,WUHU21523XXSP,2013-09-10 03:35:00,
2013-09-09 23:40:00,72.1,67.0,30.16,SW,225,0.0,0.0,84,0.00,,,0.00,WUHU21523XXSP,2013-09-10 03:40:00,
2013-09-09 23:45:00,72.1,67.0,30.16,SW,225,0.0,0.0,84,0.00,,,0.00,WUHU21523XXSP,2013-09-10 03:45:00,
2013-09-09 23:50:00,72.1,67.0,30.16,SW,225,0.0,0.0,84,0.00,,,0.00,WUHU21523XXSP,2013-09-10 03:50:00,
2013-09-09 23:55:00,72.0,67.2,30.16,SW,225,0.0,0.0,85,0.00,,,0.00,WUHU21523XXSP,2013-09-10 03:55:00,